Location: Albany
(35.0170°S, 117.8920°E)
Time: 17:29:10
(UTC+08:00)

Transit 2A - Pass Details

Date: 24 January 2021
Orbit: 601 x 958 km, 66.7° (Epoch: 02 March)

Event Time Altitude Azimuth Distance (km) Brightness Sun altitude
Rises 14:33:07 0° 8° (N) 2,913 9.1 56.7°
Reaches altitude 10° 14:35:43 10° 23° (NNE) 2,056 8.3 56.2°
Maximum altitude 14:39:18 22° 74° (ENE) 1,471 7.5 55.5°
Drops below altitude 10° 14:43:10 10° 125° (SE) 2,232 8.2 54.8°
Sets 14:46:06 0° 139° (SE) 3,233 8.9 54.2°
